Location: ??????
(55.0357°N, 38.6195°E)
Time: 12:35:13
(UTC+00:00)

Meteor 2-10 - Visible Passes

Search period start: 30 April 2025 00:00
Search period end: 10 May 2025 00:00
Orbit: 737 x 865 km, 81.2° (Epoch: 28 April)

Date Brightness Start Highest point End Pass type
(mag) Time Alt. Az. Time Alt. Az. Time Alt. Az.
30 Apr 6.4 19:21:42 10° N 19:25:14 16° NE 19:28:46 10° E visible
30 Apr 4.5 21:02:39 10° N 21:08:19 63° ENE 21:11:04 31° SE visible
30 Apr 5.4 22:45:05 10° NNW 22:49:52 28° W 22:52:02 22° WSW visible
01 May 6.5 18:55:27 10° NNE 18:58:05 13° NE 19:00:42 10° ENE visible
01 May 4.9 20:35:57 10° N 20:41:29 48° ENE 20:44:33 25° SE visible
01 May 5.0 22:18:06 10° NNW 22:23:17 37° W 22:25:31 27° SW visible
02 May 6.7 18:29:53 10° NNE 18:30:52 10° NE 18:31:51 10° NE visible
02 May 5.3 20:09:17 10° N 20:14:35 37° ENE 20:18:02 19° ESE visible
02 May 4.7 21:51:11 10° NNW 21:56:40 50° W 21:59:00 32° SSW visible
03 May 5.6 19:42:41 10° N 19:47:37 29° ENE 19:51:32 14° ESE visible
03 May 4.3 21:24:19 10° NNW 21:30:01 67° W 21:32:30 34° S visible
03 May 6.2 23:08:02 10° NW 23:10:51 14° WNW 23:13:28 10° WSW visible
04 May 5.9 19:16:08 10° N 19:20:36 23° NE 19:25:03 10° ESE visible
04 May 4.2 20:57:32 10° NNW 21:03:17 88° WSW 21:06:01 33° S visible
04 May 6.0 22:40:33 10° NW 22:44:24 19° W 22:46:59 14° WSW visible
05 May 6.2 18:49:38 10° N 18:53:32 18° NE 18:57:25 10° E visible
05 May 4.3 20:30:46 10° NNW 20:36:31 71° ENE 20:39:33 29° SSE visible
05 May 5.6 22:13:21 10° NNW 22:17:55 25° W 22:20:31 18° WSW visible
06 May 6.4 18:23:18 10° NNE 18:26:24 15° NE 18:29:29 10° ENE visible
06 May 4.7 20:04:03 10° N 20:09:41 54° ENE 20:13:05 24° SE visible
06 May 5.3 21:46:19 10° NNW 21:51:23 33° W 21:54:03 22° SW visible
07 May 6.5 17:57:17 10° NNE 17:59:12 12° NE 18:01:08 10° ENE visible
07 May 5.0 19:37:23 10° N 19:42:48 41° ENE 19:46:37 18° SE visible
07 May 4.9 21:19:22 10° NNW 21:24:47 44° W 21:27:35 26° SSW visible
08 May 5.4 19:10:45 10° N 19:15:52 32° ENE 19:20:11 14° ESE visible
08 May 4.5 20:52:30 10° NNW 20:58:08 59° W 21:01:09 27° SSW visible
08 May 6.4 22:36:40 10° NW 22:38:50 12° WNW 22:41:01 10° W visible
09 May 5.7 18:44:09 10° N 18:48:52 25° ENE 18:53:33 10° ESE visible
09 May 4.3 20:25:41 10° NNW 20:31:26 79° WSW 20:34:42 27° S visible
09 May 6.2 22:08:56 10° NW 22:12:26 17° W 22:15:41 11° WSW visible
